• en Suisse
  • Liste des pays
  • À 7 jours
  • Température de l'eau
  • Carte satellitaire
  • Carte météo
  • Widgets météo
  • user-avatar
    Se connecter

    Météo par heure à Fedosovo

    Ce jour, 24 Juin, Dimanche

    Heure Température Précipitation Vent Pression Humidité
    00:00 +17°C° 0,2 mm 3 m/s 739 mmHg 97%
    01:00 +18°C° 0,2 mm 2 m/s 739 mmHg 97%
    02:00 +19°C° 0 mm 1 m/s 738 mmHg 96%
    03:00 +19°C° 0 mm 1 m/s 738 mmHg 95%
    04:00 +19°C° 0 mm 2 m/s 738 mmHg 94%
    05:00 +19°C° 0 mm 2 m/s 738 mmHg 94%
    06:00 +21°C° 0 mm 2 m/s 738 mmHg 87%
    07:00 +23°C° 0 mm 2 m/s 738 mmHg 81%
    08:00 +26°C° 0 mm 2 m/s 738 mmHg 73%
    09:00 +26°C° 0,2 mm 3 m/s 738 mmHg 70%
    10:00 +27°C° 0,2 mm 4 m/s 738 mmHg 67%
    11:00 +28°C° 0,2 mm 4 m/s 738 mmHg 64%
    12:00 +27°C° 0,3 mm 4 m/s 739 mmHg 69%
    13:00 +25°C° 0,3 mm 4 m/s 739 mmHg 73%
    14:00 +23°C° 0,3 mm 5 m/s 739 mmHg 78%
    15:00 +21°C° 0,1 mm 4 m/s 740 mmHg 81%
    16:00 +20°C° 0,1 mm 4 m/s 740 mmHg 83%
    17:00 +19°C° 0,1 mm 3 m/s 741 mmHg 85%
    18:00 +17°C° 0,1 mm 3 m/s 741 mmHg 87%
    19:00 +16°C° 0,1 mm 2 m/s 741 mmHg 88%
    20:00 +15°C° 0,1 mm 2 m/s 742 mmHg 90%
    21:00 +14°C° 0 mm 2 m/s 742 mmHg 91%
    22:00 +13°C° 0 mm 2 m/s 742 mmHg 93%
    23:00 +12°C° 0 mm 2 m/s 742 mmHg 94%

    Demain, 25 Juin, Lundi

    Heure Température Précipitation Vent Pression Humidité
    00:00 +12°C° 0 mm 1 m/s 743 mmHg 95%
    01:00 +11°C° 0 mm 1 m/s 743 mmHg 95%
    02:00 +10°C° 0 mm 1 m/s 744 mmHg 95%
    03:00 +11°C° 0 mm 1 m/s 744 mmHg 93%
    04:00 +12°C° 0 mm 1 m/s 744 mmHg 92%
    05:00 +12°C° 0 mm 1 m/s 745 mmHg 90%
    06:00 +14°C° 0 mm 1 m/s 745 mmHg 81%
    07:00 +16°C° 0 mm 1 m/s 745 mmHg 73%
    08:00 +19°C° 0 mm 1 m/s 745 mmHg 64%
    09:00 +19°C° 0 mm 2 m/s 745 mmHg 59%
    10:00 +21°C° 0 mm 2 m/s 746 mmHg 54%
    11:00 +23°C° 0 mm 2 m/s 746 mmHg 49%
    12:00 +23°C° 0 mm 2 m/s 746 mmHg 48%
    13:00 +24°C° 0 mm 2 m/s 746 mmHg 47%
    14:00 +24°C° 0 mm 2 m/s 746 mmHg 46%
    15:00 +24°C° 0 mm 2 m/s 746 mmHg 49%
    16:00 +24°C° 0 mm 2 m/s 746 mmHg 52%
    17:00 +24°C° 0 mm 2 m/s 746 mmHg 55%
    18:00 +21°C° 0 mm 2 m/s 747 mmHg 63%
    19:00 +20°C° 0 mm 1 m/s 747 mmHg 71%
    20:00 +18°C° 0 mm 1 m/s 747 mmHg 79%
    21:00 +16°C° 0 mm 1 m/s 747 mmHg 82%
    22:00 +15°C° 0 mm 1 m/s 748 mmHg 85%
    23:00 +14°C° 0 mm 1 m/s 748 mmHg 87%

    Après-demain, 26 Juin, Mardi

    Heure Température Précipitation Vent Pression Humidité
    00:00 +13°C° 0 mm 1 m/s 748 mmHg 89%
    01:00 +13°C° 0 mm 1 m/s 748 mmHg 91%
    02:00 +12°C° 0 mm 1 m/s 749 mmHg 92%
    03:00 +13°C° 0 mm 1 m/s 749 mmHg 90%
    04:00 +13°C° 0 mm 0 m/s 749 mmHg 88%
    05:00 +14°C° 0 mm 0 m/s 750 mmHg 85%
    06:00 +16°C° 0 mm 0 m/s 750 mmHg 78%
    07:00 +18°C° 0 mm 0 m/s 750 mmHg 70%
    08:00 +20°C° 0 mm 0 m/s 750 mmHg 63%
    09:00 +23°C° 0 mm 1 m/s 750 mmHg 57%
    10:00 +25°C° 0 mm 1 m/s 750 mmHg 52%
    11:00 +26°C° 0 mm 1 m/s 750 mmHg 47%
    12:00 +26°C° 0 mm 1 m/s 750 mmHg 45%
    13:00 +27°C° 0 mm 1 m/s 750 mmHg 43%
    14:00 +27°C° 0 mm 1 m/s 750 mmHg 42%
    15:00 +27°C° 0 mm 1 m/s 750 mmHg 43%
    16:00 +26°C° 0 mm 1 m/s 750 mmHg 45%
    17:00 +24°C° 0 mm 0 m/s 750 mmHg 47%
    18:00 +24°C° 0 mm 1 m/s 750 mmHg 54%
    19:00 +22°C° 0 mm 1 m/s 750 mmHg 61%
    20:00 +20°C° 0 mm 1 m/s 750 mmHg 68%
    21:00 +19°C° 0 mm 1 m/s 750 mmHg 70%
    22:00 +18°C° 0 mm 1 m/s 751 mmHg 73%
    23:00 +16°C° 0 mm 1 m/s 751 mmHg 75%

    27 Juin, Mercredi

    Heure Température Précipitation Vent Pression Humidité
    00:00 +16°C° 0 mm 1 m/s 751 mmHg 78%
    01:00 +15°C° 0 mm 1 m/s 751 mmHg 81%
    02:00 +15°C° 0 mm 1 m/s 751 mmHg 84%
    03:00 +16°C° 0 mm 1 m/s 751 mmHg 83%
    04:00 +16°C° 0 mm 1 m/s 751 mmHg 82%
    05:00 +18°C° 0 mm 1 m/s 751 mmHg 81%
    06:00 +19°C° 0 mm 2 m/s 752 mmHg 74%
    07:00 +21°C° 0 mm 2 m/s 752 mmHg 67%
    08:00 +24°C° 0 mm 2 m/s 752 mmHg 60%
    09:00 +25°C° 0 mm 2 m/s 752 mmHg 54%
    10:00 +26°C° 0 mm 3 m/s 752 mmHg 49%
    11:00 +27°C° 0 mm 3 m/s 752 mmHg 43%
    12:00 +28°C° 0 mm 3 m/s 751 mmHg 43%
    13:00 +28°C° 0 mm 3 m/s 751 mmHg 42%
    14:00 +28°C° 0 mm 3 m/s 751 mmHg 41%
    15:00 +28°C° 0 mm 3 m/s 751 mmHg 44%
    16:00 +28°C° 0 mm 3 m/s 751 mmHg 47%
    17:00 +27°C° 0 mm 3 m/s 751 mmHg 50%
    18:00 +25°C° 0 mm 3 m/s 751 mmHg 58%
    19:00 +23°C° 0 mm 2 m/s 751 mmHg 66%
    20:00 +20°C° 0 mm 2 m/s 751 mmHg 74%
    21:00 +19°C° 0 mm 2 m/s 751 mmHg 75%
    22:00 +18°C° 0 mm 2 m/s 751 mmHg 76%
    23:00 +17°C° 0 mm 2 m/s 751 mmHg 77%

    28 Juin, Jeudi

    Heure Température Précipitation Vent Pression Humidité
    00:00 +17°C° 0 mm 2 m/s 751 mmHg 78%
    01:00 +16°C° 0 mm 2 m/s 751 mmHg 79%
    02:00 +16°C° 0 mm 2 m/s 751 mmHg 79%
    03:00 +16°C° 0 mm 2 m/s 752 mmHg 79%
    04:00 +17°C° 0 mm 2 m/s 752 mmHg 78%
    05:00 +17°C° 0 mm 2 m/s 752 mmHg 77%
    06:00 +19°C° 0 mm 2 m/s 752 mmHg 72%
    07:00 +21°C° 0 mm 2 m/s 752 mmHg 66%
    08:00 +24°C° 0 mm 3 m/s 752 mmHg 60%
    09:00 +26°C° 0 mm 3 m/s 751 mmHg 54%
    10:00 +27°C° 0 mm 3 m/s 751 mmHg 49%
    11:00 +28°C° 0 mm 3 m/s 751 mmHg 43%
    12:00 +29°C° 0 mm 3 m/s 751 mmHg 43%
    13:00 +29°C° 0 mm 3 m/s 750 mmHg 42%
    14:00 +29°C° 0 mm 3 m/s 750 mmHg 41%
    15:00 +29°C° 0 mm 3 m/s 750 mmHg 44%
    16:00 +29°C° 0 mm 3 m/s 749 mmHg 48%
    17:00 +28°C° 0 mm 3 m/s 749 mmHg 51%
    18:00 +26°C° 0 mm 3 m/s 749 mmHg 58%
    19:00 +24°C° 0 mm 3 m/s 749 mmHg 65%
    20:00 +21°C° 0 mm 3 m/s 748 mmHg 72%
    21:00 +20°C° 0 mm 2 m/s 748 mmHg 75%
    22:00 +20°C° 0 mm 2 m/s 748 mmHg 77%
    23:00 +19°C° 0 mm 2 m/s 748 mmHg 80%

    29 Juin, Vendredi

    Heure Température Précipitation Vent Pression Humidité
    00:00 +18°C° 0 mm 2 m/s 748 mmHg 81%
    01:00 +18°C° 0 mm 2 m/s 748 mmHg 82%
    02:00 +17°C° 0 mm 2 m/s 748 mmHg 83%
    03:00 +18°C° 0 mm 3 m/s 748 mmHg 81%
    04:00 +18°C° 0 mm 3 m/s 747 mmHg 78%
    05:00 +19°C° 0 mm 3 m/s 747 mmHg 76%
    06:00 +21°C° 0 mm 3 m/s 747 mmHg 70%
    07:00 +23°C° 0 mm 4 m/s 747 mmHg 63%
    08:00 +26°C° 0 mm 4 m/s 747 mmHg 57%
    09:00 +27°C° 0 mm 4 m/s 746 mmHg 53%
    10:00 +28°C° 0 mm 4 m/s 746 mmHg 49%
    11:00 +29°C° 0 mm 4 m/s 746 mmHg 45%
    12:00 +30°C° 0 mm 4 m/s 745 mmHg 46%
    13:00 +32°C° 0 mm 5 m/s 745 mmHg 46%
    14:00 +32°C° 0 mm 5 m/s 744 mmHg 47%
    15:00 +32°C° 0 mm 4 m/s 744 mmHg 51%
    16:00 +30°C° 0 mm 4 m/s 744 mmHg 55%
    17:00 +29°C° 0 mm 4 m/s 743 mmHg 59%
    18:00 +28°C° 1 mm 3 m/s 743 mmHg 67%
    19:00 +26°C° 1 mm 3 m/s 743 mmHg 76%
    20:00 +24°C° 1 mm 2 m/s 743 mmHg 85%
    21:00 +22°C° 0,8 mm 3 m/s 743 mmHg 87%
    22:00 +22°C° 0,8 mm 3 m/s 743 mmHg 90%
    23:00 +21°C° 0,8 mm 3 m/s 743 mmHg 92%
    Voir plus